THOR ABLESTAR DEB, 6748

Orbit data source: Space-Track

THOR ABLESTAR DEB, 6748 is space debris in LEO originally from a launch on Thu, 29 Jun 1961 UTC launched from the Air Force Eastern Test Range (AFETR). Debris objects in space refer to the collection of defunct objects orbiting the Earth. Examples of debris include non-operational satellites, rocket bodies, and fragments generated from explosions, collisions, or faulty payload assembly.

Loading next visibility...
Identifier
6748, 1961-015KN
Orbit
LEO
Country
Flag of USUS
Related business
Manufacturer
Unknown
Mission
Spacecraft
Bus & Motor
Unknown
Mass
Unknown
Launch date (UTC)
1961-06-29 (65 years ago)
Launch vehicle
Unknown
Launch site
Air Force Eastern Test Range (AFETR)
Object type
Payload
Rocket body
Debris
Shape & HBR
Unknown shape, 0.1 m
Radar Cross Section
Medium (>0.1 m² and <1 m²)

Expand to show TLE details & history
Last TLE update: 2 days ago

TLE from 2 days ago
0 THOR ABLESTAR DEB
1 06748U 61015KN  26251.96039481  .00003414  00000-0  11606-2 0  9992
2 06748  66.8915  99.1359 0064666 229.8863 129.6563 14.36547134302694
Epoch: 2026-09-08T23:02Z
TLE epoch observation values (Epoch: 2026-09-08T23:02:58.111Z)
Latitude
-0.00001°
Longitude
125.37446°
Altitude
801.736 km
Speed
7.438 km/s
True Right ascension
06h 36m 32s
True Declination
0° 00' 00"
Sunlit
Object was in daylight at epoch
Visualization orbit readout
Latitude
Unknown
Longitude
Unknown
Altitude
Unknown
Speed
Unknown
Apparent Right ascension
Unknown
Apparent Declination
Unknown
Sunlit
N/A
Visualization observer readout
Local Sidereal Time
14:46:58
Azimuth
Unknown
Elevation
Unknown
Doppler factor
Unknown
Orbital elements
Apogee altitude
814.49 km
Perigee altitude
722.064 km
Semi-major axis
7,146.414 km
Eccentricity
0.00647
Inclination
66.8915°
RAAN
99.1359°
Arg. of periapsis
229.8863°
True anomaly
130.22386°
Mean anomaly
129.6563°
Eccentric anomaly
129.94037°
Mean motion
3.59262 °/min
Orbital period
100.21 mins
BSTAR
0.0011606
Loading maneuver chart data...
Computing Atmospheric mass density...

Documentation

Showing up to 5 results
|